TimePST,TemperatureF,Dew PointF,Humidity,Sea Level PressureIn,VisibilityMPH,Wind Direction,Wind SpeedMPH,Gust SpeedMPH,PrecipitationIn,Events,Conditions,WindDirDegrees,DateUTC
12:15 AM,23.0,19.4,86,30.25,0.5,Calm,Calm,-,N/A,Fog,Light Freezing Fog,0,2013-01-09 08:15:00
12:35 AM,17.6,15.8,93,30.24,0.2,East,4.6,-,N/A,Fog,Light Freezing Fog,100,2013-01-09 08:35:00
12:55 AM,19.4,17.6,93,30.24,0.2,Calm,Calm,-,N/A,Fog,Light Freezing Fog,0,2013-01-09 08:55:00
1:15 AM,19.4,19.4,100,30.23,0.2,SW,3.5,-,N/A,Fog,Light Freezing Fog,230,2013-01-09 09:15:00
1:35 AM,21.2,19.4,93,30.24,0.2,Calm,Calm,-,N/A,Fog,Light Freezing Fog,0,2013-01-09 09:35:00
1:55 AM,19.4,17.6,93,30.24,0.2,ESE,3.5,-,N/A,Fog,Light Freezing Fog,120,2013-01-09 09:55:00
2:15 AM,19.4,17.6,93,30.24,0.2,WNW,3.5,-,N/A,Fog,Light Freezing Fog,300,2013-01-09 10:15:00
2:35 AM,19.4,17.6,93,30.23,0.2,Calm,Calm,-,N/A,Fog,Light Freezing Fog,0,2013-01-09 10:35:00
2:55 AM,17.6,17.6,100,30.22,0.2,Calm,Calm,-,N/A,Fog,Light Freezing Fog,0,2013-01-09 10:55:00
3:15 AM,17.6,15.8,93,30.21,0.2,Calm,Calm,-,N/A,Fog,Light Freezing Fog,0,2013-01-09 11:15:00
3:35 AM,17.6,15.8,93,30.20,0.2,Calm,Calm,-,N/A,Fog,Light Freezing Fog,0,2013-01-09 11:35:00
3:55 AM,17.6,15.8,93,30.18,0.2,Calm,Calm,-,N/A,Fog,Light Freezing Fog,0,2013-01-09 11:55:00
4:15 AM,17.6,15.8,93,30.17,0.2,NE,3.5,-,N/A,Fog,Light Freezing Fog,50,2013-01-09 12:15:00
4:35 AM,17.6,14.0,86,30.15,0.2,Calm,Calm,-,N/A,Fog,Light Freezing Fog,0,2013-01-09 12:35:00
4:55 AM,15.8,14.0,93,30.15,0.2,Calm,Calm,-,N/A,Fog,Light Freezing Fog,0,2013-01-09 12:55:00
5:15 AM,17.6,15.8,93,30.15,0.2,NNW,5.8,-,N/A,Fog,Light Freezing Fog,340,2013-01-09 13:15:00
5:35 AM,15.8,14.0,93,30.13,3.0,NNW,3.5,-,N/A,,Partly Cloudy,330,2013-01-09 13:35:00
7:55 AM,46.4,23.0,40,30.08,10.0,SSW,19.6,32.2,N/A,,Scattered Clouds,200,2013-01-09 15:55:00
8:55 AM,46.4,21.2,37,30.07,10.0,SSW,12.7,28.8,N/A,,Scattered Clouds,210,2013-01-09 16:55:00
9:55 AM,46.4,21.2,37,30.03,10.0,SW,16.1,35.7,N/A,,Scattered Clouds,230,2013-01-09 17:55:00
10:50 AM,46.4,19.4,34,30.00,10.0,SW,26.5,36.8,N/A,,Mostly Cloudy,220,2013-01-09 18:50:00
12:50 PM,44.6,24.8,46,29.94,10.0,SW,19.6,33.4,N/A,,Mostly Cloudy,220,2013-01-09 20:50:00
1:45 PM,42.8,24.8,49,29.91,10.0,SSW,21.9,33.4,N/A,,Overcast,210,2013-01-09 21:45:00
2:50 PM,41.0,26.6,57,29.90,10.0,SSW,18.4,39.1,N/A,,Overcast,210,2013-01-09 22:50:00
3:50 PM,39.2,24.8,56,29.88,10.0,SW,19.6,36.8,N/A,,Overcast,220,2013-01-09 23:50:00
4:50 PM,37.4,24.8,60,29.84,10.0,SSW,25.3,32.2,N/A,,Overcast,200,2013-01-10 00:50:00
4:55 PM,37.4,24.8,60,29.84,10.0,SSW,24.2,32.2,N/A,,Clear,200,2013-01-10 00:55:00
5:15 PM,37.4,24.8,60,29.84,10.0,SSW,21.9,29.9,N/A,,Clear,200,2013-01-10 01:15:00
5:35 PM,37.4,24.8,60,29.83,10.0,SW,13.8,26.5,N/A,,Clear,220,2013-01-10 01:35:00
5:55 PM,37.4,24.8,60,29.82,10.0,SW,15.0,26.5,N/A,,Mostly Cloudy,220,2013-01-10 01:55:00
6:15 PM,35.6,26.6,70,29.83,1.8,SSW,15.0,28.8,N/A,Snow,Light Snow,200,2013-01-10 02:15:00
6:35 PM,32.0,28.4,87,29.82,1.0,SSW,21.9,36.8,N/A,Snow,Light Snow,200,2013-01-10 02:35:00
6:55 PM,32.0,28.4,87,29.80,1.0,SSW,16.1,32.2,N/A,Rain,Light Rain,200,2013-01-10 02:55:00
7:15 PM,32.0,28.4,87,29.77,1.2,South,21.9,32.2,N/A,,Haze,190,2013-01-10 03:15:00
7:35 PM,32.0,26.6,80,29.76,2.5,South,17.3,32.2,N/A,Snow,Light Snow,190,2013-01-10 03:35:00
7:55 PM,32.0,26.6,80,29.76,3.0,SSW,17.3,28.8,N/A,,Haze,200,2013-01-10 03:55:00
8:15 PM,32.0,28.4,87,29.75,0.8,SSW,13.8,18.4,N/A,Snow,Light Snow,200,2013-01-10 04:15:00
8:35 PM,32.0,28.4,87,29.73,0.8,SSW,10.4,-,N/A,Snow,Light Snow,200,2013-01-10 04:35:00
8:55 PM,32.0,28.4,87,29.72,0.8,SSW,8.1,17.3,N/A,Snow,Light Snow,210,2013-01-10 04:55:00
9:15 PM,32.0,28.4,87,29.73,0.5,SW,17.3,25.3,N/A,Snow,Snow,220,2013-01-10 05:15:00
9:35 PM,28.4,26.6,93,29.76,0.2,WSW,12.7,18.4,0.01,Snow,Heavy Snow,250,2013-01-10 05:35:00
9:55 PM,28.4,26.6,93,29.77,0.5,WSW,10.4,-,0.01,Snow,Snow,240,2013-01-10 05:55:00
10:15 PM,26.6,23.0,86,29.79,0.8,WSW,12.7,18.4,N/A,Snow,Light Snow,240,2013-01-10 06:15:00
10:35 PM,24.8,23.0,93,29.79,0.2,WNW,12.7,16.1,N/A,Snow,Heavy Snow,290,2013-01-10 06:35:00